STARLINK-32852, 62824

Orbit data source: Space-Track

STARLINK-32852, 62824 is a payload satellite owned by SpaceX/Seattle (US) in LEO that was launched on Fri, 24 Jan 2025 UTC via an FALCON 9 launch vehicle from the Air Force Western Test Range (AFWTR). Payload-class satellites include a variety of spacecraft equipped with specific instruments for various scientific and technological missions. These include communications satellites like Starlink; space stations such as the ISS; scientific satellites like the Hubble; Earth observation satellites from companies like Planet Labs, Umbra, and HawkEye 360; GPS; miniature CubeSats for education and research; and military/defense satellites.

Loading next visibility...
Identifier
62824, 2025-018U
Orbit
LEO
Country
Flag of USUS
Related business
Manufacturer
SpaceX/Seattle
Mission
Operational Commercial Communications
Bus & Motor
STARLINK V2M, Unknown motor
Mass
730 kg wet, ~700 kg dry
Launch date (UTC)
2025-01-24 (1 year ago)
Launch vehicle
FALCON 9
Launch site
Air Force Western Test Range (AFWTR)
Object type
Payload
Rocket body
Debris
Shape & HBR
Box + 2 Pan, 17.7 m
Radar Cross Section
33.884 m², Large (>1 m²)

Expand to show TLE details & history
Last TLE update: 9 hours ago

TLE from 9 hours ago
0 STARLINK-32852
1 62824U 25018U   26120.59196389  .00033454  00000-0  11360-2 0  9991
2 62824  53.1601  68.6002 0001376 104.2146 255.9008 15.30216380 71126
Epoch: 2026-04-30T14:12Z
TLE epoch observation values (Epoch: 2026-04-30T14:12:25.680Z)
Latitude
0.00002°
Longitude
-3.04314°
Altitude
476.296 km
Speed
7.629 km/s
True Right ascension
04h 34m 24s
True Declination
0° 00' 00"
Sunlit
Object was in daylight at epoch
Visualization orbit readout
Latitude
Unknown
Longitude
Unknown
Altitude
Unknown
Speed
Unknown
Apparent Right ascension
Unknown
Apparent Declination
Unknown
Sunlit
N/A
Visualization observer readout
Local Sidereal Time
06:37:24
Azimuth
Unknown
Elevation
Unknown
Doppler factor
Unknown
Orbital elements
Apogee altitude
476.366 km
Perigee altitude
474.48 km
Semi-major axis
6,853.56 km
Eccentricity
0.00014
Inclination
53.1601°
RAAN
68.6002°
Arg. of periapsis
104.2146°
True anomaly
255.88551°
Mean anomaly
255.9008°
Eccentric anomaly
255.89315°
Mean motion
3.82533 °/min
Orbital period
94.11 mins
BSTAR
0.001136
Loading maneuver chart data...
Computing Atmospheric mass density...
Loading historical data...
Loading historical data...
Loading historical data...
Loading historical data...
Loading historical data...
Loading historical data...
Loading historical data...

Documentation

Showing up to 5 results
|